Powrót do katalogu

FENGYUN 1C DEB

AktywnySSO
NORAD 30726·DEBRIS·🇨🇳 China

Wystrzelony May 10, 1999 z Taiyuan Satellite Launch Center

Loading…

Następne Przeloty (najbliższe 24 godziny)

TLE

ŚwieżeSource: Space-Track

Epoka: Sep 14, 2026, 07:33 UTC

1 30726U 99025ASL 26257.31504639  .00000833  00000-0  48267-3 0  9990
2 30726  99.2670 272.2266 0078400 178.0274 303.5691 14.10236109998660

Śledź FENGYUN 1C DEB w czasie rzeczywistym z AllMySat

Download on the App Store